OE-11208 Weather Reports


time (UTC)temp
C
wind
direction
speed
KPH
gust
KPH
rain 1hr
cm
rain 24hr
cm
rain mn
cm
humidity
%
barometer
mb
20260903084135 20 286 3.2 6.4 0.00 0.00 0.00 61 1021.1
20260903083523 19 189 3.2 6.4 0.00 0.00 0.00 62 1021.2
20260903082523 18 239 1.6 6.4 0.00 0.00 0.00 70 1021.3
20260903081136 18 145 1.6 6.4 0.00 0.00 0.00 73 1021.7
20260903080523 17 47 3.2 6.4 0.00 0.00 0.00 73 1021.8
20260903075523 16 153 1.6 3.2 0.00 0.00 0.00 76 1022.2
20260903074136 17 141 1.6 4.8 0.00 0.00 0.00 77 1022.1
20260903073522 16 143 3.2 6.4 0.00 0.00 0.00 80 1022.4
20260903072522 16 147 3.2 4.8 0.00 0.00 0.00 80 1022.3
20260903071136 15 143 3.2 4.8 0.00 0.00 0.00 85 1022.9
20260903070523 15 113 3.2 4.8 0.00 0.00 0.00 86 1022.9
20260903065523 15 67 1.6 4.8 0.00 0.00 0.00 87 1022.8
20260903064135 14 360 0.0 1.6 0.00 0.00 0.00 87 1023.2
20260903063522 14 195 1.6 3.2 0.00 0.00 0.00 90 1023.1
20260903062523 13 222 3.2 4.8 0.00 0.00 0.00 90 1023.2
20260903061136 13 240 3.2 4.8 0.00 0.00 0.00 90 1023.3
20260903060523 13 249 3.2 4.8 0.00 0.00 0.00 92 1023.3
20260903055522 13 220 3.2 6.4 0.00 0.00 0.00 92 1023.2
20260903054135 13 209 0.0 3.2 0.00 0.00 0.00 94 1023.3
20260903053523 12 110 1.6 1.6 0.00 0.00 0.00 94 1023.3
20260903052523 12 131 0.0 3.2 0.00 0.00 0.00 94 1023.4
20260903051136 12 127 1.6 3.2 0.00 0.00 0.00 94 1023.3
20260903050522 12 198 0.0 1.6 0.00 0.00 0.00 94 1023.3
20260903045523 12 8 0.0 1.6 0.00 0.00 0.00 94 1023.2
20260903044135 12 269 1.6 1.6 0.00 0.00 0.00 93 1023.2
20260903043522 12 163 1.6 3.2 0.00 0.00 0.00 94 1023.2
20260903042523 12 333 1.6 3.2 0.00 0.00 0.00 93 1023.2
20260903041135 12 118 1.6 3.2 0.00 0.00 0.00 94 1023.2
20260903040523 12 230 0.0 3.2 0.00 0.00 0.00 94 1023.3
20260903035523 12 348 0.0 1.6 0.00 0.00 0.00 93 1023.1
20260903034522 12 111 1.6 4.8 0.00 0.00 0.00 94 1023.2
20260903033522 12 71 3.2 3.2 0.00 0.00 0.00 94 1023.2
20260903032523 12 293 1.6 3.2 0.00 0.00 0.00 94 1023.2
20260903031136 12 181 1.6 3.2 0.00 0.00 0.00 94 1023.3
20260903030523 12 176 1.6 1.6 0.00 0.00 0.00 93 1023.3
20260903025523 12 199 1.6 1.6 0.00 0.00 0.00 94 1023.3
20260903024523 12 335 1.6 3.2 0.00 0.00 0.00 93 1023.3
20260903023523 12 259 0.0 1.6 0.00 0.00 0.00 93 1023.2
20260903022523 12 134 1.6 3.2 0.00 0.00 0.00 93 1023.2
20260903021135 12 360 0.0 3.2 0.00 0.00 0.00 94 1023.2
20260903020523 12 253 1.6 3.2 0.00 0.00 0.00 94 1023.3
20260903015523 12 220 1.6 3.2 0.00 0.00 0.00 94 1023.3
20260903014135 12 360 0.0 3.2 0.00 0.00 0.00 92 1023.4
20260903013522 12 150 1.6 3.2 0.00 0.00 0.00 94 1023.5
20260903012522 12 92 0.0 1.6 0.00 0.00 0.00 93 1023.5
20260903011136 12 325 0.0 1.6 0.00 0.00 0.00 94 1023.5
20260903010523 12 272 0.0 1.6 0.00 0.00 0.00 93 1023.5
20260903005523 12 246 0.0 1.6 0.00 0.00 0.00 94 1023.6
20260903004136 12 141 0.0 1.6 0.00 0.00 0.00 93 1023.5
20260903003523 11 97 1.6 3.2 0.00 0.00 0.00 94 1023.5
20260903002523 12 343 1.6 3.2 0.00 0.00 0.00 93 1023.5
20260903001535 11 210 1.6 3.2 0.00 0.00 0.00 94 1023.6
20260903000522 11 103 1.6 3.2 0.00 0.00 0.00 94 1023.7
20260902235522 11 119 1.6 6.4 0.00 0.00 0.00 93 1023.9
20260902234136 11 40 0.0 3.2 0.00 0.00 0.00 93 1024.0
20260902233522 11 248 1.6 4.8 0.00 0.00 0.00 93 1023.8
20260902232522 12 256 1.6 3.2 0.00 0.00 0.00 93 1023.5
20260902231523 11 181 0.0 3.2 0.00 0.00 0.00 93 1023.5
20260902230522 11 32 1.6 3.2 0.00 0.00 0.00 92 1023.5
20260902225523 12 348 1.6 3.2 0.00 0.00 0.00 92 1023.2
20260902224136 12 173 1.6 4.8 0.00 0.00 0.00 91 1023.1
20260902223523 12 154 1.6 4.8 0.00 0.00 0.00 92 1022.9
20260902222523 12 358 1.6 3.2 0.00 0.00 0.00 90 1022.7
20260902221136 13 360 0.0 1.6 0.00 0.00 0.00 90 1022.5
20260902220522 13 220 1.6 3.2 0.00 0.00 0.00 89 1022.4
20260902215522 12 223 1.6 3.2 0.00 0.00 0.00 90 1022.5
20260902214136 13 276 1.6 3.2 0.00 0.00 0.00 89 1022.3
20260902213522 12 360 1.6 3.2 0.00 0.00 0.00 89 1022.5
20260902211136 13 132 1.6 4.8 0.00 0.00 0.00 89 1022.3
20260902210523 13 21 1.6 3.2 0.00 0.00 0.00 86 1022.1
20260902205523 13 137 1.6 4.8 0.00 0.00 0.00 87 1022.1
20260902204137 13 47 1.6 3.2 0.00 0.00 0.00 87 1022.1
20260902203522 13 278 1.6 1.6 0.00 0.00 0.00 86 1022.0
20260902202523 13 234 1.6 3.2 0.00 0.00 0.00 85 1021.9
20260902201136 13 185 1.6 3.2 0.00 0.00 0.00 88 1022.0
20260902200523 13 148 0.0 1.6 0.00 0.00 0.00 85 1021.9
20260902195523 14 172 1.6 3.2 0.00 0.00 0.00 84 1021.8
20260902194136 14 49 1.6 4.8 0.00 0.00 0.00 85 1021.7
20260902193523 15 49 3.2 6.4 0.00 0.00 0.00 81 1021.4
20260902192522 15 146 3.2 6.4 0.00 0.00 0.00 81 1021.3
20260902191136 15 296 3.2 8.0 0.00 0.00 0.00 80 1021.2
20260902190522 15 124 1.6 4.8 0.00 0.00 0.00 79 1021.1
20260902185523 15 359 1.6 6.4 0.00 0.00 0.00 78 1020.8
20260902184136 15 20 1.6 6.4 0.00 0.00 0.00 77 1020.5
20260902183523 16 16 3.2 8.0 0.00 0.00 0.00 74 1019.9
20260902182523 16 75 3.2 6.4 0.00 0.00 0.00 71 1019.7
20260902181136 17 212 1.6 11.3 0.00 0.00 0.00 67 1019.3
20260902180523 17 243 4.8 8.0 0.00 0.00 0.00 66 1019.1
20260902175523 17 333 6.4 20.9 0.00 0.00 0.00 68 1018.9
20260902174136 18 329 6.4 17.7 0.00 0.00 0.00 63 1018.2
20260902173522 19 328 4.8 19.3 0.00 0.00 0.00 58 1017.8
20260902172523 20 332 6.4 20.9 0.00 0.00 0.00 60 1017.5
20260902171136 20 353 11.3 22.5 0.00 0.00 0.00 56 1017.3
20260902170523 20 3 12.9 25.7 0.00 0.00 0.00 53 1017.1
20260902165523 21 15 16.1 27.4 0.00 0.00 0.00 52 1017.1
20260902164136 21 10 17.7 29.0 0.00 0.00 0.00 47 1017.0
20260902163523 21 7 17.7 32.2 0.00 0.00 0.00 45 1016.8
20260902162523 22 5 17.7 27.4 0.00 0.00 0.00 45 1016.6
20260902161136 22 6 16.1 27.4 0.00 0.00 0.00 45 1016.6
20260902160522 22 8 16.1 27.4 0.00 0.00 0.00 46 1016.4
20260902155523 22 8 17.7 32.2 0.00 0.00 0.00 45 1016.3
20260902154136 22 16 17.7 29.0 0.00 0.00 0.00 45 1016.4
20260902153523 23 20 19.3 27.4 0.00 0.00 0.00 43 1016.2
20260902152522 23 15 17.7 29.0 0.00 0.00 0.00 45 1016.4
20260902151136 23 4 14.5 24.1 0.00 0.00 0.00 43 1016.2
20260902150523 23 15 19.3 29.0 0.00 0.00 0.00 47 1016.2
20260902145523 23 13 17.7 27.4 0.00 0.00 0.00 45 1016.2
20260902144136 23 6 19.3 29.0 0.00 0.00 0.00 45 1016.2
20260902143522 26 3 3.2 17.7 0.00 0.00 0.00 41 1015.5
20260902142523 25 235 1.6 11.3 0.00 0.00 0.00 42 1015.7
20260902141136 25 225 3.2 17.7 0.00 0.00 0.00 41 1015.8
20260902140523 25 35 6.4 17.7 0.00 0.00 0.00 42 1015.7
20260902135523 25 300 4.8 14.5 0.00 0.00 0.00 42 1015.5
20260902134135 24 263 4.8 14.5 0.00 0.00 0.00 46 1016.0
20260902133523 24 257 4.8 14.5 0.00 0.00 0.00 39 1016.0
20260902132523 25 293 6.4 17.7 0.00 0.00 0.00 37 1015.9
20260902131136 25 304 4.8 12.9 0.00 0.00 0.00 33 1016.0
20260902130523 24 272 4.8 11.3 0.00 0.00 0.00 38 1016.1
20260902125523 25 254 3.2 8.0 0.00 0.00 0.00 39 1016.2
20260902124135 24 278 8.0 20.9 0.00 0.00 0.00 35 1016.5
20260902123523 24 240 6.4 17.7 0.00 0.00 0.00 41 1016.4
20260902122523 25 219 6.4 12.9 0.00 0.00 0.00 43 1016.3
20260902121136 24 206 6.4 12.9 0.00 0.00 0.00 45 1016.4
20260902120522 25 219 6.4 11.3 0.00 0.00 0.00 44 1016.5
20260902115522 24 211 6.4 12.9 0.00 0.00 0.00 43 1016.8
20260902114136 24 210 6.4 12.9 0.00 0.00 0.00 45 1016.7
20260902113523 23 212 4.8 12.9 0.00 0.00 0.00 45 1017.1
20260902112523 24 199 4.8 11.3 0.00 0.00 0.00 42 1017.1
20260902111136 23 207 4.8 12.9 0.00 0.00 0.00 41 1017.3
20260902110523 23 202 6.4 11.3 0.00 0.00 0.00 44 1017.3
20260902105522 23 193 6.4 12.9 0.00 0.00 0.00 46 1017.5
20260902104136 23 218 6.4 14.5 0.00 0.00 0.00 43 1017.7
20260902103523 23 222 4.8 11.3 0.00 0.00 0.00 49 1017.8
20260902102522 22 213 6.4 12.9 0.00 0.00 0.00 46 1018.1
20260902101136 22 205 4.8 11.3 0.00 0.00 0.00 52 1018.5
20260902100523 22 170 4.8 9.7 0.00 0.00 0.00 54 1018.6
20260902095523 21 200 4.8 9.7 0.00 0.00 0.00 55 1018.9
20260902094136 21 219 3.2 8.0 0.00 0.00 0.00 53 1019.3
20260902093523 20 233 3.2 8.0 0.00 0.00 0.00 57 1019.5
20260902092522 20 206 4.8 8.0 0.00 0.00 0.00 60 1019.6
20260902091135 20 180 1.6 6.4 0.00 0.00 0.00 63 1019.6
20260902090523 20 179 3.2 8.0 0.00 0.00 0.00 65 1019.7